Flag for U.S.A. Weather past 2 weeks in Fort Collins, Colorado, U.S.A.

Now
75 °F

Sunny.


Feels Like: 78 °F
Forecast: 62 / 83 °F
Wind: No wind

Location: Fort Collins-Loveland Municipal Airport

Current Time: Aug 3, 2015 at 11:55:53 AM

Latest Report: Aug 3, 2015 at 11:15 AM


Visibility: 10 mi

Pressure: 30.09 "Hg (25.26 "Hg at 1522m altitude)

Humidity: 47%

Dew point: 54 °F

Location of Fort CollinsLocation

Historic Weather in Fort Collins — Graph

°F

Fort Collins temperature yesterday

Maximum temperature yesterday: 90 °F (at 12:15 PM)
Minimum temperature yesterday: 61 °F (at 4:35 AM)
Average temperature yesterday: 75 °F

Past Weeks' High & Low Weather Summary

 TemperatureHumidityPressure
High97 °F (Jul 27, 4:55 PM)94% (Jul 22, 2:35 AM)30.35 "Hg (Jul 22, 2:35 AM)
Low54 °F (Jul 29, 5:35 AM)15% (Jul 23, 4:35 PM)29.76 "Hg (Jul 27, 6:15 PM)
Average74 °F48%30.12 "Hg
* Reported Jul 19 10:15 AM — Aug 3 10:35 AM, Fort Collins, Weather by CustomWeather, © 2015

Note: Actual official high and low records may vary slightly from our data, if they occured in-between our weather recording intervals... More about our weather records

Advertising

Fort Collins weather history for previous 24 hours

 ConditionsComfort  
Time TempWeatherWind HumidityBarometerVisibility
10:35 AM
Mon, Aug 3
75 °FSunny.3 mph47%30.09 "Hg10 mi
10:15 AM75 °FSunny.No wind47%30.09 "Hg10 mi
9:55 AM73 °FSunny.5 mph50%30.09 "Hg10 mi
9:35 AM73 °FSunny.6 mph50%30.09 "Hg10 mi
9:15 AM72 °FSunny.5 mph53%30.09 "Hg10 mi
8:55 AM70 °FSunny.8 mph57%30.09 "Hg10 mi
8:35 AM70 °FSunny.6 mph57%30.09 "Hg10 mi
8:15 AM66 °FSunny.6 mph64%30.09 "Hg5 mi
7:55 AM66 °FSunny.3 mph64%30.09 "Hg10 mi
7:35 AM64 °FSunny.3 mph68%30.09 "Hg10 mi
7:15 AM64 °FSunny.3 mph68%30.09 "Hg10 mi
6:55 AM63 °FClear.3 mph73%30.09 "Hg10 mi
6:35 AM63 °FClear.5 mph73%30.09 "Hg10 mi
6:15 AM63 °FClear.3 mph68%30.08 "Hg10 mi
5:55 AM63 °FClear.7 mph68%30.08 "Hg10 mi
5:35 AM63 °FClear.8 mph68%30.08 "Hg10 mi
5:15 AM63 °FClear.7 mph68%30.07 "Hg10 mi
4:55 AM61 °FClear.5 mph72%30.07 "Hg10 mi
4:35 AM61 °FClear.6 mph72%30.07 "Hg10 mi
4:15 AM64 °FClear.6 mph64%30.07 "Hg10 mi
3:35 AM64 °FClear.3 mph64%30.07 "Hg10 mi
3:15 AM64 °FClear.5 mph64%30.07 "Hg10 mi
2:55 AM64 °FClear.5 mph64%30.07 "Hg10 mi
2:35 AM64 °FClear.5 mph64%30.07 "Hg10 mi
2:15 AM64 °FClear.5 mph64%30.07 "Hg10 mi
1:55 AM66 °FClear.6 mph60%30.07 "Hg10 mi
1:35 AM70 °FClear.3 mph50%30.07 "Hg10 mi
1:15 AM70 °FClear.8 mph53%30.07 "Hg10 mi
12:55 AM72 °FClear.3 mph47%30.07 "Hg10 mi
12:35 AM72 °FClear.6 mph47%30.07 "Hg10 mi
12:15 AM72 °FClear.3 mph50%30.07 "Hg10 mi
11:55 PM
Sun, Aug 2
72 °FClear.No wind47%30.08 "Hg10 mi
11:35 PM72 °FClear.No wind47%30.07 "Hg10 mi
11:15 PM70 °FClear.5 mph46%30.07 "Hg10 mi
10:55 PM72 °FClear.7 mph44%30.07 "Hg10 mi
10:15 PM72 °FClear.9 mph44%30.06 "Hg10 mi
9:55 PM72 °FClear.7 mph44%30.06 "Hg10 mi
9:35 PM72 °FClear.6 mph44%30.06 "Hg10 mi
9:15 PM73 °FClear.6 mph38%30.06 "Hg10 mi
8:55 PM73 °FSunny.6 mph38%30.05 "Hg10 mi
8:35 PM73 °FSunny.7 mph38%30.04 "Hg10 mi
8:15 PM75 °FSunny.8 mph36%30.04 "Hg10 mi
7:55 PM77 °FSunny.10 mph34%30.04 "Hg10 mi
7:35 PM79 °FSunny.13 mph32%30.03 "Hg10 mi
7:15 PM79 °FSunny.15 mph34%30.03 "Hg10 mi
6:55 PM81 °FSunny.18 mph34%30.03 "Hg10 mi
6:35 PM82 °FSunny.20 mph30%30.03 "Hg10 mi
6:15 PM84 °FSunny.16 mph29%30.02 "Hg10 mi
5:55 PM86 °FSunny.17 mph27%30.02 "Hg10 mi
5:35 PM84 °FSunny.17 mph29%30.02 "Hg10 mi
5:15 PM86 °FSunny.18 mph27%30.02 "Hg10 mi
4:55 PM90 °FSunny.7 mph27%30.02 "Hg10 mi
4:15 PM88 °FSunny.6 mph29%30.03 "Hg10 mi
3:55 PM88 °FSunny.12 mph29%30.03 "Hg10 mi
3:35 PM88 °FSunny.10 mph27%30.04 "Hg10 mi
2:55 PM84 °FSunny.10 mph31%30.05 "Hg10 mi
2:35 PM84 °FSunny.10 mph35%30.06 "Hg10 mi
2:15 PM84 °FSunny.14 mph35%30.06 "Hg10 mi
1:55 PM86 °FSunny.10 mph33%30.06 "Hg10 mi
1:35 PM90 °FSunny.6 mph27%30.04 "Hg10 mi
1:15 PM90 °FSunny.7 mph31%30.04 "Hg10 mi
12:55 PM90 °FSunny.8 mph31%30.04 "Hg10 mi
12:35 PM90 °FSunny.9 mph29%30.04 "Hg8 mi
12:15 PM90 °FSunny.6 mph29%30.05 "Hg8 mi
11:55 AM88 °FSunny.6 mph31%30.05 "Hg5 mi
11:35 AM88 °FSunny.6 mph29%30.05 "Hg10 mi
11:15 AM86 °FSunny.6 mph31%30.07 "Hg10 mi
Weather by CustomWeather, © 2015

See weather overviewHow to use our weather pages